Location: Newark
(33.6333°S, 78.8500°W)
Time: 15:15:37
(UTC+00:00)

Tiros 1 despin weight - Pass Details

Date: 28 September 2019
Orbit: 594 x 643 km, 48.2° (Epoch: 16 October)

Event Time Altitude Azimuth Distance (km) Brightness Sun altitude
Rises 03:47:16 0° 263° (W) 2,866 - -49.9°
Reaches altitude 10° 03:50:08 10° 245° (WSW) 1,975 - -50.2°
Maximum altitude 03:53:25 19° 199° (SSW) 1,477 - -50.6°
Drops below altitude 10° 03:56:44 10° 152° (SSE) 2,005 - -50.9°
Sets 03:59:40 0° 134° (SE) 2,925 - -51.2°
